Location: Watson Lake
(60.1170°N, 128.8000°W)
Time: 09:35:53
(UTC-07:00)

Daily predictions for brighter satellites

Satellite Brightness Start Highest point End
(mag) Time Altitude Azimuth Time Altitude Azimuth Time Altitude Azimuth
DNEPR-1 R/B 3.9 23:25:07 10° SW 23:29:35 59° SE 23:34:55 10° ENE
Cosmos 1125 Rocket 3.8 23:26:58 10° NW 23:32:13 65° WSW 23:37:25 10° SSE
Cosmos 2322 4.3 23:27:08 10° NW 23:32:41 52° WSW 23:38:13 10° SSE
Cosmos 1814 Rocket 4.1 23:30:51 10° SSW 23:36:03 64° ESE 23:41:22 10° NE
USA 234 3.4 23:30:01 10° E 23:36:28 56° SSE 23:42:55 10° SW
Cosmos 1515 3.7 23:32:59 10° S 23:36:50 76° E 23:40:42 10° NNE
Cosmos 2344 4.4 23:28:13 10° WNW 23:36:57 81° NNE 23:48:51 10° ESE
Cosmos 1766 3.9 23:33:44 10° N 23:37:36 48° ENE 23:41:28 10° SE
SAR-Lupe-1 4.3 23:34:24 10° SSE 23:37:58 66° ENE 23:41:34 10° NNW
H-2A R/B 3.4 23:36:03 10° ESE 23:39:51 31° ENE 23:43:36 10° N
Cosmos 2322 Rocket 4.1 23:36:15 10° NW 23:40:25 22° WSW 23:44:33 10° SSW
Cosmos 292 Rocket 4.0 23:36:06 10° S 23:40:42 50° ESE 23:45:20 10° NE
Meteor 1-22 Rocket 4.3 23:36:06 10° NNW 23:41:39 70° ENE 23:46:58 10° SSE
Cosmos 2237 Rocket 2.5 23:38:58 10° NW 23:44:42 71° NE 23:50:24 10° SE
SL-16 R/B 4.2 23:43:00 10° WNW 23:46:53 19° W 23:50:47 10° SW
Cosmos 1092 Rocket 4.1 23:40:40 10° NNW 23:47:03 86° W 23:53:25 10° S
Cosmos 2082 Rocket 3.5 23:41:53 10° WSW 23:47:23 46° NW 23:52:55 10° NE
NOSS 3-2 (A) 3.6 23:43:56 10° SW 23:50:05 67° SE 23:57:05 10° ENE
SJ 16-02 2.4 23:47:04 10° NW 23:51:12 39° WSW 23:55:19 10° S
Nadezhda 4 Rocket 4.4 23:47:24 10° NNW 23:53:36 62° W 23:59:48 10° S
